STARLINK-30489, 57974

Orbit data source: Space-Track

STARLINK-30489, 57974 is a payload satellite owned by SpaceX/Seattle (US) in LEO that was launched on Sat, 30 Sep 2023 UTC via an FALCON 9 launch vehicle from the Air Force Eastern Test Range (AFETR). Payload-class satellites include a variety of spacecraft equipped with specific instruments for various scientific and technological missions. These include communications satellites like Starlink; space stations such as the ISS; scientific satellites like the Hubble; Earth observation satellites from companies like Planet Labs, Umbra, and HawkEye 360; GPS; miniature CubeSats for education and research; and military/defense satellites.

Loading next visibility...
Identifier
57974, 2023-151L
Orbit
LEO
Country
Flag of USUS
Related business
Manufacturer
SpaceX/Seattle
Mission
Operational Commercial Communications
Bus & Motor
STARLINK V2M, Unknown motor
Mass
730 kg wet, ~700 kg dry
Launch date (UTC)
2023-09-30 (3 years ago)
Launch vehicle
FALCON 9
Launch site
Air Force Eastern Test Range (AFETR)
Object type
Payload
Rocket body
Debris
Shape & HBR
Box + 2 Pan, 17.7 m
Radar Cross Section
33.884 m², Large (>1 m²)

Expand to show TLE details & history
Last TLE update: 21 hours ago

TLE from 21 hours ago
0 STARLINK-30489
1 57974U 23151L   26192.51216618 -.00001345  00000-0 -39369-4 0  9993
2 57974  43.0071 356.6998 0001869 277.6882  82.3758 15.27560977154708
Epoch: 2026-07-11T12:17Z
TLE epoch observation values (Epoch: 2026-07-11T12:17:31.157Z)
Latitude
-0°
Longitude
-117.10435°
Altitude
482.712 km
Speed
7.626 km/s
True Right ascension
23h 46m 47s
True Declination
0° 00' 00"
Sunlit
Object was in full shadow at epoch
Visualization orbit readout
Latitude
Unknown
Longitude
Unknown
Altitude
Unknown
Speed
Unknown
Apparent Right ascension
Unknown
Apparent Declination
Unknown
Sunlit
N/A
Visualization observer readout
Local Sidereal Time
21:18:28
Azimuth
Unknown
Elevation
Unknown
Doppler factor
Unknown
Orbital elements
Apogee altitude
486.333 km
Perigee altitude
483.767 km
Semi-major axis
6,863.187 km
Eccentricity
0.00019
Inclination
43.0071°
RAAN
356.6998°
Arg. of periapsis
277.6882°
True anomaly
82.39703°
Mean anomaly
82.3758°
Eccentric anomaly
82.38641°
Mean motion
3.81728 °/min
Orbital period
94.31 mins
BSTAR
-0.000039369
Loading maneuver chart data...
Computing Atmospheric mass density...
Loading historical data...
Loading historical data...
Loading historical data...
Loading historical data...
Loading historical data...
Loading historical data...
Loading historical data...

Documentation

Showing up to 5 results
|